Temperature
20 20 20 21 21 21 20 20 20 20 20 20 19 19 19 19 19 19 19 19 19 19 19 19 19 19 19 19 18 18 18 18 18 18 18 18 18 17 18 18 18 17 17
21 20 20 21 20 20 20 20 20 20 19 19 19 19 19 19 19 19 19 19 19 19 19 19 19 19 19 19 18 18 18 18 18 18 18 18 17 17 18 18 18 17 17
21 20 20 20 20 20 20 20 20 20 19 19 19 19 19 19 19 19 19 19 19 19 19 19 19 19 19 19 19 18 18 18 18 18 18 17 17 17 17 18 18 17 17
21 21 20 20 20 20 20 20 20 20 19 19 19 19 19 19 19 19 19 19 19 19 19 19 19 19 19 19 19 18 18 18 17 18 18 18 18 17 18 18 17 17 17
21 21 20 20 20 20 20 20 20 20 19 19 19 19 19 19 19 19 19 19 19 19 19 19 19 19 19 19 19 18 18 18 17 18 18 17 18 18 18 18 18 17 17
21 21 21 21 20 20 20 20 20 20 19 19 19 19 19 19 19 19 19 19 19 19 19 19 19 19 19 19 19 18 18 17 17 18 17 18 18 18 18 18 18 17 17
21 21 21 21 21 20 20 20 20 19 19 19 19 19 19 19 19 19 19 19 18 18 18 19 19 19 19 19 19 18 18 18 18 18 17 17 18 18 18 18 18 18 17
22 21 21 21 21 20 20 20 20 19 19 19 19 19 19 18 18 18 18 18 18 18 18 18 19 19 19 19 19 18 18 18 18 18 17 17 18 18 18 18 18 18 18
22 21 21 21 20 20 20 20 20 19 19 19 19 19 18 18 18 18 18 18 18 18 18 18 18 18 19 19 19 19 18 18 18 18 18 18 18 18 18 18 18 18 18
21 21 21 20 20 20 20 19 19 19 19 19 19 18 18 18 18 18 18 18 18 18 18 18 18 18 18 18 19 19 18 18 18 18 18 18 18 18 18 18 18 18 18
21 20 20 20 20 19 19 19 19 19 19 18 18 18 18 18 18 18 18 18 18 18 18 18 18 18 18 18 18 18 18 18 18 18 18 18 17 18 18 18 18 18 18
20 20 20 20 19 19 19 19 19 19 18 18 18 18 18 18 18 17 17 17 17 17 17 17 17 17 18 18 18 18 18 18 18 18 18 18 17 17 18 18 18 18 18
20 20 19 20 19 19 19 19 19 18 18 18 18 18 18 18 17 17 17 17 17 17 17 17 17 17 17 17 17 17 18 18 18 18 18 18 17 17 17 18 18 18 18
20 19 19 19 19 19 19 19 18 18 18 18 18 18 18 17 17 17 17 17 17 17 17 17 17 17 17 17 17 17 17 17 17 17 17 17 17 17 17 17 17 18 18
20 20 19 19 19 19 19 18 18 18 18 18 18 18 17 17 17 17 16 16 16 16 16 16 16 16 16 16 16 16 16 17 17 17 17 17 17 17 17 17 17 17 18
20 20 19 19 19 19 19 18 18 18 18 18 17 17 17 17 16 16 16 16 16 15 15 16 16 16 16 16 16 16 16 16 16 17 17 17 17 17 17 17 17 17 17
20 20 19 19 19 19 18 18 18 18 18 17 17 17 17 16 16 16 16 15 15 15 15 15 15 15 15 15 16 16 16 16 16 16 16 16 17 17 17 17 17 17 17
20 20 19 19 19 18 18 18 18 18 17 17 17 16 16 16 16 15 15 15 14 14 14 15 15 15 15 15 15 15 16 16 16 16 16 16 16 16 16 16 16 16 17
19 19 19 19 18 18 18 18 17 17 17 17 16 16 16 16 15 15 15 14 14 14 14 14 14 14 14 15 15 15 15 15 16 16 16 16 16 16 16 16 16 16 16
19 19 19 19 18 18 18 18 17 17 16 16 16 16 16 15 15 15 14 14 14 14 14 14 14 14 14 14 14 15 15 15 15 16 16 16 16 16 16 16 16 16 16
18 19 19 19 18 18 18 17 17 17 16 16 16 15 15 15 15 14 14 14 14 13 13 13 13 13 14 14 14 14 15 15 15 16 16 16 16 16 16 16 16 16 16
19 19 19 19 18 18 18 17 17 16 16 16 15 15 15 15 14 14 14 13 13 13 13 13 13 13 13 13 13 14 14 15 15 15 15 16 16 16 16 16 16 16 16
19 19 19 19 18 18 17 17 17 16 16 15 15 15 15 14 14 14 14 13 13 13 13 13 12 13 13 13 13 13 13 13 14 15 15 15 15 15 15 15 15 16 16
19 19 19 18 18 18 17 17 17 16 16 15 15 15 14 14 14 13 13 13 13 13 13 12 12 12 12 12 12 12 12 12 13 13 15 15 15 15 15 15 15 15 15
19 19 19 18 18 18 17 17 16 16 15 15 15 14 14 14 14 13 13 13 13 13 12 12 12 12 12 12 12 12 12 12 12 12 13 14 14 14 14 15 15 15 15
19 19 19 19 18 18 17 17 16 16 15 15 15 14 14 14 14 13 13 13 13 13 12 12 12 12 12 11 11 12 12 12 12 12 12 12 13 14 14 14 14 15 15
Wind_Speed
8 11 18 19 19 19 19 19 19 19 18 18 18 18 18 18 17 16 16 15 14 13 13 12 12 12 12 12 12 12 11 11 12 13 14 14 15 16 17 18 18 17 19
12 15 19 19 19 19 19 19 19 18 18 18 17 17 17 16 15 15 14 13 13 12 12 12 11 11 11 11 11 11 10 10 11 12 14 14 14 15 17 17 17 16 18
15 16 18 19 19 19 19 19 18 18 18 17 17 16 16 15 14 13 12 12 12 11 11 11 10 10 10 9 9 9 9 9 9 10 11 11 12 15 17 17 17 18 17
16 16 17 20 20 20 19 19 18 18 17 17 16 16 15 14 13 12 12 11 11 10 10 10 9 9 9 8 8 7 7 7 7 8 8 8 11 15 17 17 17 17 17
14 16 19 20 20 20 19 19 18 18 17 16 16 15 14 13 12 11 10 10 10 9 9 9 8 8 7 7 6 5 5 5 5 5 7 10 12 15 17 17 16 16 16
12 15 19 21 20 20 19 18 18 17 16 15 14 13 12 12 11 10 9 9 9 8 7 7 7 7 6 5 4 4 4 4 4 5 10 13 13 16 16 16 16 16 16
12 14 18 20 20 20 19 18 17 16 15 14 13 12 11 10 9 9 8 8 8 7 6 6 6 6 5 4 3 2 2 4 4 5 10 13 14 16 16 16 15 15 15
15 13 17 20 20 19 18 18 17 16 14 13 12 11 10 8 7 7 7 6 7 7 6 6 6 5 5 4 3 1 1 2 4 5 8 11 16 17 16 16 16 15 15
14 12 13 16 17 18 17 17 15 15 14 12 11 9 8 7 6 5 5 5 5 6 6 6 6 6 6 5 5 3 2 1 2 4 8 11 16 17 17 16 16 15 15
10 9 10 12 13 14 15 15 15 13 12 11 9 7 6 4 4 4 5 5 5 5 5 6 6 7 7 7 6 6 4 2 1 3 7 10 16 17 17 17 17 16 15
11 8 8 9 11 12 13 13 13 12 10 9 7 6 5 4 3 3 3 4 4 4 4 5 5 6 6 7 7 7 6 4 2 3 7 11 16 17 17 17 17 17 17
11 9 8 8 9 10 10 11 9 8 8 8 7 6 6 6 5 4 2 1 1 1 1 2 3 5 5 5 5 6 6 6 4 4 7 10 16 18 18 18 18 18 18
11 10 8 8 9 8 7 9 7 7 8 8 8 8 9 8 7 6 4 3 2 1 1 2 1 2 3 3 3 4 6 5 4 4 6 8 15 19 19 19 19 19 19
11 10 9 9 8 8 8 7 7 7 7 7 9 10 9 6 5 4 4 4 4 2 2 2 1 2 2 2 3 4 4 4 5 5 6 9 15 19 20 19 20 20 20
12 10 9 10 9 7 7 6 7 7 7 8 9 10 10 6 3 3 3 4 4 3 2 2 1 2 2 2 3 3 4 5 6 6 6 10 15 18 20 20 20 21 21
11 10 9 9 8 8 6 5 6 7 8 9 9 9 10 8 5 3 3 3 4 4 2 1 1 1 1 1 2 2 3 3 5 6 8 11 14 18 20 21 21 21 21
11 10 9 9 7 7 7 6 7 8 9 8 8 9 9 8 7 5 3 3 4 6 5 4 3 3 2 2 2 3 2 3 4 6 8 10 12 17 20 22 23 23 22
10 9 9 9 8 8 6 6 6 8 9 8 9 9 9 8 8 6 3 3 5 7 5 2 3 3 3 3 3 4 3 3 5 7 8 9 11 12 17 21 23 24 23
9 9 8 8 8 7 6 5 6 7 7 8 8 8 8 8 8 7 4 4 6 5 4 3 3 2 3 4 4 3 4 4 4 6 5 8 10 12 14 18 22 24 24
8 9 9 8 7 7 6 5 4 5 4 6 6 7 8 7 7 7 5 5 6 4 4 4 3 3 2 3 4 4 4 4 4 4 5 5 8 11 13 14 15 19 24
8 9 9 8 6 6 4 4 4 2 2 2 3 6 7 6 7 6 4 4 4 4 4 4 3 4 4 4 4 5 5 4 3 3 3 2 3 6 9 11 12 13 15
9 9 8 8 7 6 4 4 3 3 2 2 2 4 6 6 7 6 4 3 3 4 5 5 4 3 3 4 3 3 5 6 5 4 4 3 3 2 3 7 8 10 11
9 10 10 8 8 7 6 4 4 4 3 3 2 1 2 5 6 6 5 4 3 3 3 3 3 3 3 3 3 2 2 3 4 4 4 5 5 3 3 3 5 7 9
11 9 9 9 8 7 6 6 5 4 3 2 2 2 2 3 4 5 5 5 3 2 2 1 2 2 2 2 3 2 1 3 1 4 5 5 6 5 5 4 3 4 6
11 10 9 9 8 7 7 7 7 5 4 2 2 2 0 1 1 5 6 5 3 2 1 1 2 2 1 0 1 2 2 2 1 1 4 5 5 4 5 4 3 4 6
10 10 9 10 8 7 8 8 8 7 6 4 2 1 1 1 1 3 6 4 3 2 2 1 0 0 0 1 1 1 1 0 1 0 2 4 5 5 5 4 4 4 6
Wind_Direction
146 146 138 134 131 128 124 121 118 115 114 114 112 111 111 110 109 109 108 108 106 104 102 99 97 94 93 95 96 96 98 102 105 107 110 112 115 117 117 116 114 115 117
143 141 133 131 131 129 127 125 123 121 120 119 119 118 117 116 115 113 113 112 109 106 104 102 99 98 96 96 96 96 96 99 103 106 108 111 116 118 118 118 118 122 120
132 132 129 128 130 131 131 129 127 126 125 124 125 124 123 122 120 118 117 116 114 111 108 106 104 102 99 96 95 94 95 96 100 104 103 103 111 119 120 122 123 123 122
129 129 128 127 128 130 130 130 129 129 128 128 128 129 129 128 126 125 124 122 119 117 114 112 110 108 104 99 94 90 87 84 95 107 118 118 116 121 124 125 126 125 123
125 128 130 127 127 128 128 128 129 129 129 130 131 132 132 131 130 129 129 129 126 125 124 121 118 115 113 107 97 84 73 64 69 100 132 130 126 128 128 129 130 129 129
125 129 131 129 128 129 129 128 128 129 130 131 133 134 136 137 136 136 135 133 133 132 133 131 129 127 125 119 108 85 63 49 56 100 136 139 138 137 136 135 135 134 133
131 133 134 132 132 131 131 131 130 131 132 133 135 137 139 139 141 143 143 143 144 144 143 146 143 142 142 143 137 103 48 37 69 117 144 149 148 145 143 142 141 140 139
138 137 138 137 136 135 134 133 134 134 135 137 138 140 141 143 147 150 153 156 158 159 160 163 167 168 170 176 183 192 353 30 77 111 150 161 157 152 151 150 148 147 146
139 139 139 142 141 139 138 137 137 138 139 139 140 142 146 151 157 164 170 171 172 172 176 178 185 192 197 203 213 224 251 331 90 133 163 170 167 160 159 158 157 156 154
139 141 140 139 139 139 140 141 141 141 141 140 139 138 137 142 155 171 186 188 186 189 192 195 198 203 209 216 227 235 242 256 159 172 173 181 178 171 168 167 165 165 164
145 148 143 139 139 141 143 145 144 141 139 136 133 130 120 107 113 132 153 177 186 197 206 209 213 214 219 223 234 245 244 229 212 207 187 192 186 180 175 174 173 172 172
154 156 151 148 148 149 146 138 136 129 128 123 115 108 99 92 90 90 98 129 169 203 228 230 234 232 228 226 240 250 240 232 221 213 197 196 192 191 184 180 180 180 179
149 143 142 146 148 142 131 135 126 118 117 111 104 97 87 79 70 62 44 18 5 2 10 339 297 257 236 223 229 242 237 234 231 220 214 208 197 197 194 189 187 187 186
131 126 128 130 128 128 127 125 123 118 114 109 99 92 86 74 62 51 38 22 18 21 21 16 328 276 266 247 234 229 229 220 227 226 228 215 207 200 199 197 195 193 193
124 124 125 123 122 123 119 124 123 123 121 116 105 98 95 85 68 47 35 28 27 33 25 12 344 290 278 281 268 236 228 223 222 216 215 216 215 208 204 205 203 202 200
127 127 125 122 123 121 118 118 123 127 121 114 111 109 102 94 80 60 40 32 21 14 5 13 7 335 316 312 299 280 248 237 228 219 218 221 221 216 212 210 210 210 208
132 129 129 127 120 115 116 121 126 127 123 120 120 112 103 93 78 69 58 31 9 12 15 24 23 28 11 359 332 310 285 268 255 245 235 227 224 221 217 216 216 215 214
138 138 138 130 122 119 120 120 126 127 126 129 125 114 106 97 83 71 58 25 18 28 30 35 31 23 8 356 331 312 306 290 275 265 247 233 227 226 224 224 222 221 219
147 140 130 127 128 126 122 116 116 119 125 136 132 123 114 104 88 79 65 38 36 37 28 26 35 30 4 344 318 310 311 300 285 281 258 238 228 227 226 230 228 226 225
145 138 134 132 131 123 109 96 90 94 111 140 141 137 127 113 93 86 72 46 46 42 23 16 16 14 5 338 330 330 305 295 293 284 274 253 232 226 224 226 229 231 230
146 142 141 140 143 131 117 113 113 121 128 143 158 149 141 126 105 98 84 62 52 47 29 17 16 11 359 359 11 340 327 327 330 318 311 285 252 239 229 224 224 225 231
160 156 152 152 152 144 139 143 147 141 133 143 148 146 153 141 131 126 114 97 69 51 32 28 34 25 357 19 35 17 349 342 340 345 352 9 347 310 267 246 229 223 226
168 170 167 165 158 153 145 121 91 73 62 65 98 153 185 167 157 145 136 121 94 77 49 36 49 62 14 354 36 83 55 319 315 327 353 8 0 352 325 296 254 234 229
181 178 171 168 163 158 143 132 130 130 132 161 173 192 221 197 186 168 149 134 115 96 70 38 72 72 68 7 354 29 171 200 275 321 327 345 349 350 342 336 322 287 249
182 179 174 165 165 162 150 142 132 133 150 155 130 140 264 306 236 173 151 142 131 120 113 76 56 52 82 103 331 336 351 10 88 161 309 326 333 331 333 325 315 304 278
181 177 171 166 169 165 155 148 147 152 157 150 144 140 335 347 30 143 148 152 158 161 172 184 198 349 307 267 256 230 189 288 309 298 277 306 313 310 319 323 325 313 298
Height
1538 1540 1542 1544 1545 1546 1548 1549 1550 1551 1552 1553 1554 1555 1556 1556 1557 1558 1558 1559 1560 1560 1561 1561 1561 1561 1561 1562 1562 1562 1562 1562 1562 1562 1563 1563 1564 1564 1565 1566 1567 1567 1568
1536 1540 1543 1544 1546 1547 1549 1550 1551 1552 1553 1554 1555 1556 1556 1557 1558 1558 1559 1560 1560 1561 1561 1562 1562 1562 1562 1563 1563 1563 1563 1564 1564 1564 1565 1565 1566 1567 1567 1568 1568 1569 1570
1536 1540 1543 1545 1547 1548 1549 1551 1552 1553 1554 1555 1555 1556 1557 1558 1558 1559 1560 1560 1561 1562 1562 1562 1563 1563 1563 1564 1564 1564 1565 1565 1566 1566 1567 1567 1568 1569 1569 1569 1570 1571 1572
1537 1541 1543 1546 1547 1549 1550 1551 1553 1554 1555 1555 1556 1557 1557 1558 1559 1559 1560 1561 1561 1562 1563 1563 1563 1564 1564 1565 1565 1566 1566 1567 1567 1568 1569 1569 1569 1570 1570 1571 1572 1572 1573
1539 1542 1544 1546 1548 1550 1551 1552 1553 1554 1555 1556 1557 1557 1558 1559 1559 1560 1561 1561 1562 1563 1563 1564 1564 1565 1565 1566 1566 1567 1568 1568 1568 1569 1570 1570 1571 1571 1572 1572 1573 1574 1575
1540 1543 1545 1547 1549 1550 1552 1553 1554 1555 1556 1557 1557 1558 1558 1559 1559 1560 1561 1562 1562 1563 1563 1564 1565 1565 1566 1566 1567 1568 1569 1569 1569 1570 1570 1571 1572 1572 1573 1574 1574 1575 1576
1541 1544 1546 1548 1549 1551 1552 1553 1554 1555 1556 1557 1557 1558 1559 1559 1560 1560 1561 1562 1562 1563 1564 1564 1565 1566 1566 1567 1568 1569 1569 1570 1570 1570 1571 1572 1573 1573 1574 1575 1575 1576 1577
1542 1544 1546 1549 1550 1551 1552 1554 1555 1556 1557 1557 1558 1559 1559 1559 1560 1561 1561 1562 1562 1563 1563 1564 1565 1566 1566 1567 1568 1569 1570 1570 1571 1571 1572 1573 1573 1574 1575 1576 1576 1577 1578
1543 1545 1547 1549 1551 1552 1553 1554 1556 1556 1557 1558 1558 1559 1559 1560 1560 1561 1561 1562 1562 1562 1563 1563 1564 1565 1566 1567 1567 1568 1569 1570 1571 1571 1572 1573 1574 1575 1575 1576 1577 1578 1579
1545 1546 1548 1550 1551 1553 1554 1555 1556 1557 1557 1558 1558 1559 1559 1560 1560 1560 1561 1561 1561 1561 1562 1562 1563 1564 1565 1566 1566 1567 1568 1569 1570 1571 1572 1573 1574 1575 1576 1576 1577 1578 1579
1545 1547 1549 1550 1552 1553 1554 1555 1556 1557 1558 1558 1559 1559 1559 1559 1559 1560 1560 1560 1560 1560 1560 1561 1562 1563 1563 1564 1565 1566 1567 1568 1569 1570 1571 1572 1573 1574 1575 1576 1577 1578 1579
1545 1547 1549 1550 1552 1553 1554 1555 1556 1557 1558 1558 1559 1559 1559 1559 1559 1559 1559 1559 1559 1559 1559 1559 1560 1561 1561 1562 1563 1564 1565 1566 1567 1568 1569 1570 1571 1573 1574 1575 1576 1578 1579
1545 1547 1549 1550 1552 1553 1555 1555 1556 1557 1557 1558 1558 1558 1558 1558 1558 1558 1558 1557 1557 1557 1557 1557 1558 1559 1559 1560 1561 1562 1563 1564 1565 1566 1567 1568 1569 1571 1572 1574 1575 1577 1578
1545 1547 1549 1551 1552 1553 1555 1555 1556 1556 1557 1557 1558 1558 1558 1557 1557 1557 1556 1555 1555 1555 1555 1555 1556 1556 1557 1558 1558 1559 1560 1561 1562 1563 1564 1565 1566 1568 1570 1572 1574 1575 1577
1545 1547 1550 1551 1552 1554 1554 1555 1556 1556 1557 1557 1557 1557 1557 1556 1556 1555 1554 1554 1554 1553 1553 1553 1553 1554 1555 1555 1556 1556 1557 1558 1559 1560 1561 1562 1563 1565 1567 1568 1571 1573 1575
1545 1547 1550 1551 1552 1554 1554 1555 1555 1556 1556 1556 1557 1557 1556 1555 1554 1553 1552 1552 1552 1551 1551 1552 1552 1552 1552 1552 1553 1553 1554 1555 1555 1556 1558 1559 1560 1561 1563 1565 1568 1570 1572
1545 1548 1550 1551 1552 1553 1554 1555 1555 1556 1556 1556 1556 1556 1555 1554 1553 1552 1551 1551 1550 1550 1550 1550 1550 1550 1550 1550 1550 1551 1551 1552 1552 1553 1554 1555 1556 1558 1560 1562 1564 1566 1568
1545 1547 1549 1551 1552 1553 1554 1555 1555 1555 1556 1556 1555 1555 1554 1553 1552 1551 1550 1549 1549 1549 1548 1548 1548 1548 1548 1548 1548 1548 1548 1549 1549 1550 1550 1551 1553 1555 1556 1558 1560 1562 1564
1545 1547 1549 1551 1552 1553 1554 1554 1555 1555 1555 1555 1555 1554 1554 1552 1551 1550 1549 1548 1548 1547 1547 1546 1546 1546 1546 1546 1546 1546 1545 1546 1546 1547 1547 1548 1549 1551 1553 1554 1556 1558 1560
1545 1547 1548 1550 1552 1553 1554 1554 1555 1555 1555 1554 1554 1554 1553 1552 1551 1549 1548 1547 1547 1546 1546 1545 1545 1545 1544 1544 1543 1543 1543 1543 1543 1544 1544 1545 1546 1548 1549 1551 1552 1554 1555
1544 1546 1547 1549 1551 1552 1553 1553 1554 1554 1554 1554 1553 1553 1552 1551 1550 1549 1548 1547 1546 1545 1544 1544 1544 1543 1543 1542 1542 1542 1541 1541 1541 1541 1541 1542 1543 1545 1546 1547 1549 1550 1551
1543 1545 1546 1548 1550 1551 1552 1553 1553 1553 1553 1553 1552 1551 1551 1550 1549 1548 1547 1546 1545 1544 1544 1543 1543 1542 1542 1542 1541 1540 1540 1541 1540 1540 1540 1540 1541 1542 1543 1544 1545 1546 1547
1541 1543 1545 1547 1549 1550 1550 1551 1552 1552 1551 1551 1551 1550 1550 1549 1548 1548 1547 1546 1545 1544 1543 1543 1542 1542 1541 1541 1541 1541 1541 1540 1539 1539 1539 1539 1539 1539 1540 1541 1542 1542 1543
1539 1541 1544 1546 1547 1548 1549 1549 1550 1550 1550 1549 1549 1549 1548 1548 1547 1547 1546 1545 1544 1544 1543 1542 1541 1541 1540 1540 1540 1541 1541 1540 1540 1538 1538 1538 1538 1538 1538 1538 1539 1539 1540
1537 1540 1542 1544 1545 1546 1547 1547 1547 1547 1548 1547 1547 1547 1547 1546 1546 1545 1545 1544 1544 1543 1542 1541 1540 1539 1539 1539 1539 1539 1539 1539 1539 1538 1536 1536 1536 1536 1536 1536 1536 1537 1537
1536 1538 1540 1541 1543 1544 1545 1545 1545 1545 1545 1545 1545 1545 1544 1544 1544 1544 1543 1543 1542 1542 1541 1540 1539 1538 1538 1537 1537 1537 1537 1537 1537 1536 1535 1534 1533 1533 1533 1534 1534 1534 1534